Zurück zum Katalog

STARLINK-5791

AktivKommunikationVLEO
NORAD 57146·PAYLOAD·🇺🇸 United States

Gestartet Jun 23, 2023 von Cape Canaveral Space Force Station

Loading…

Nächste Überflüge (nächste 24 Stunden)

TLE

AktuellSource: CelesTrak SupGP

Epoche: Sep 14, 2026, 21:14 UTC

1 57146C 23090AX  26257.88520833 -.00000678  00000+0 -24549-4 0  2573
2 57146  43.0035 274.7216 0002078 274.3263 315.1912 15.27571786    15

Verfolge STARLINK-5791 in Echtzeit mit AllMySat

Download on the App Store